This demonstration page uses our WeatherBlox Daily Observations layout. Learn more.

Left ArrowRight Arrow

41.86663, -103.66717

Hourly Observations for December 8, 2017

Temp ( °F °C ) Dew Point ( °F °C ) Humidity (%) Winds ( mph kmh ) Pressure ( in mb ) Visibility ( mi km ) Precip ( " mm )
12:53 am 00:53 Clear 43 6.1 17 -8.3 35 35 WNW 23 37 30.15 1021 10 16 0.00 0.00
1:53 am 01:53 Clear 42 5.6 16 -8.9 35 35 WNW 17 28 30.15 1021 10 16 0.00 0.00
2:53 am 02:53 Clear 42 5.6 16 -8.9 35 35 WNW 21 33 30.15 1021 10 16 0.00 0.00
3:53 am 03:53 Clear 42 5.6 14 -10 32 32 WNW 26 43 30.14 1021 10 16 0.00 0.00
4:53 am 04:53 Clear 41 5 14 -10 33 33 WNW 24 39 30.14 1021 10 16 0.00 0.00
5:53 am 05:53 Clear 41 5 13 -10.6 32 32 WNW 24 39 30.15 1021 10 16 0.00 0.00
6:53 am 06:53 Clear 41 5 13 -10.6 32 32 WNW 23 37 30.18 1022 10 16 0.00 0.00
7:53 am 07:53 Sunny 41 5 13 -10.6 32 32 WNW 22 35 30.19 1022 10 16 0.00 0.00
8:53 am 08:53 Sunny 41 5 13 -10.6 32 32 WNW 21 33 30.21 1023 10 16 0.00 0.00
9:53 am 09:53 Sunny 47 8.3 12 -11.1 24 24 NW 29 46 30.20 1023 10 16 0.00 0.00
10:53 am 10:53 Sunny 48 8.9 11 -11.7 22 22 NW 31 50 30.21 1023 10 16 0.00 0.00
11:53 am 11:53 Sunny 49 9.4 10 -12.2 21 21 NW 29 46 30.17 1022 10 16 0.00 0.00
12:53 pm 12:53 Mostly Cloudy 48 8.9 12 -11.1 23 23 NW 23 37 30.17 1022 10 16 0.00 0.00
1:53 pm 13:53 Cloudy 52 11.1 12 -11.1 20 20 NW 30 48 30.14 1021 10 16 0.00 0.00
2:53 pm 14:53 Mostly Cloudy 51 10.6 11 -11.7 20 20 NW 31 50 30.14 1021 10 16 0.00 0.00
3:53 pm 15:53 Cloudy 50 10 11 -11.7 21 21 NW 17 28 30.14 1021 10 16 0.00 0.00
4:53 pm 16:53 Cloudy 47 8.3 16 -8.9 29 29 NW 21 33 30.16 1021 10 16 0.00 0.00
5:53 pm 17:53 Mostly Clear 46 7.8 16 -8.9 30 30 WNW 15 24 30.16 1021 10 16 0.00 0.00
6:53 pm 18:53 Clear 44 6.7 16 -8.9 32 32 WNW 14 22 30.17 1022 10 16 0.00 0.00
7:53 pm 19:53 Cloudy 45 7.2 15 -9.4 30 30 NW 20 31 30.18 1022 10 16 0.00 0.00
8:53 pm 20:53 Partly Cloudy 44 6.7 14 -10 30 30 WNW 18 30 30.18 1022 10 16 0.00 0.00
9:53 pm 21:53 Clear 40 4.4 14 -10 35 35 WNW 13 20 30.20 1023 10 16 0.00 0.00
10:53 pm 22:53 Clear 34 1.1 14 -10 44 44 WNW 8 13 30.24 1024 10 16 0.00 0.00
11:53 pm 23:53 Clear 32 0 13 -10.6 45 45 WNW 10 17 30.23 1024 10 16 0.00 0.00

Powered by AerisWeather